Stations météo

réclame
Mon MeteoGroup
Andernach, Allemagne (10520): Température de l'air & dewpoint: 13.07.2019 08:00:00 - 19.07.2019 08:00:00 (CEST)Andernach, Allemagne (10520): Température de l'air 5cm & Température de l'air -5cm: 13.07.2019 08:00:00 - 19.07.2019 08:00:00 (CEST)Andernach, Allemagne (10520): Température de l'air -20cm & Température de l'air -100cm: 13.07.2019 08:00:00 - 19.07.2019 08:00:00 (CEST)Andernach, Allemagne (10520): Vitesse du vent & gusts: 13.07.2019 08:00:00 - 19.07.2019 08:00:00 (CEST)Andernach, Allemagne (10520): Direction du vent: 13.07.2019 08:00:00 - 19.07.2019 08:00:00 (CEST)Andernach, Allemagne (10520): reduced air pressure: 13.07.2019 08:00:00 - 19.07.2019 08:00:00 (CEST)Andernach, Allemagne (10520): visibility: 13.07.2019 08:00:00 - 19.07.2019 08:00:00 (CEST)Andernach, Allemagne (10520): Ensoleillement: 13.07.2019 08:00:00 - 19.07.2019 08:00:00 (CEST)Andernach, Allemagne (10520): Quantités de précipitations: 13.07.2019 08:00:00 - 19.07.2019 08:00:00 (CEST)
Date & Time tt [°C] td [°C] tt 5cm [°C] tt -5cm [°C] tt -20cm [°C] tt -100cm [°C] ff [km/h] ff [knt] fx [km/h] fx [knt] dd ppp [hPa] vv [km] sd [min] rr [mm]
19.07.2019 08:00:00 17,4 16,2 17,7 19,2 21,0 19,4 3 1 6 3 NE 1014,5 23 0 0,0
19.07.2019 07:00:00 16,8 16,4 16,7 18,9 21,2 19,4 3 2 6 3 S 1014,4 7 0 1,9
19.07.2019 06:00:00 17,0 16,5 16,8 19,0 21,4 19,4 3 2 8 4 SW 1014,3 5 0 1,4
19.07.2019 05:00:00 16,9 16,1 16,5 19,3 21,6 19,4 2 1 8 4 SE 1013,7 7 0 0,8
19.07.2019 04:00:00 17,2 16,2 16,6 19,6 21,9 19,4 2 1 7 4 N 1013,8 14 0 0,1
19.07.2019 03:00:00 17,8 16,2 16,7 20,0 22,1 19,4 3 2 7 4 NW 1013,3 27 0 0,0
19.07.2019 02:00:00 17,8 16,0 16,8 20,4 22,4 19,4 3 2 8 4 W 1013,4 29 0 0,3
19.07.2019 01:00:00 20,0 14,8 18,7 21,1 22,7 19,4 6 3 8 4 NNW 1013,4 25 0 0,0
19.07.2019 00:00:00 19,7 14,7 18,7 21,5 22,9 19,4 1 1 7 4 WSW 1013,0 44 0 0,0
18.07.2019 23:00:00 20,1 14,4 18,5 22,2 23,2 19,4 4 2 11 6 S 1012,5 41 0 0,0
18.07.2019 22:00:00 20,3 15,5 18,9 23,1 23,5 19,4 2 1 7 4 SW 1012,1 46 0 0,0
18.07.2019 21:00:00 22,3 14,2 21,2 24,4 23,6 19,4 4 2 8 5 NNW 1011,4 47 0 0,0
18.07.2019 20:00:00 22,9 14,8 23,0 25,2 23,8 19,4 5 3 10 5 NNW 1011,2 46 0 0,0
18.07.2019 19:00:00 23,3 13,5 23,8 25,8 23,9 19,4 4 2 9 5 ESE 1011,2 47 0 0,0
18.07.2019 18:00:00 23,0 13,2 23,5 26,4 23,9 19,4 10 5 27 15 WNW 1011,3 42 0 0,1
18.07.2019 17:00:00 26,0 10,5 26,7 28,2 23,8 19,4 11 6 24 13 W 1011,1 45 0 0,0
18.07.2019 16:00:00 25,8 10,5 25,9 28,9 23,5 19,5 4 2 15 8 NNW 1010,9 50 0 0,0
18.07.2019 15:00:00 26,3 10,0 26,7 32,8 22,7 19,5 8 4 16 9 N 1010,6 42 17 0,0
18.07.2019 14:00:00 27,5 11,1 33,3 32,9 21,7 19,5 9 5 17 9 E 1010,5 52 38 0,0
18.07.2019 13:00:00 25,2 11,7 28,7 31,7 20,8 19,5 11 6 20 11 ENE 1011,1 50 35 0,0
18.07.2019 12:00:00 23,8 12,9 28,4 28,8 20,0 19,5 8 4 15 8 ESE 1011,6 34 60 0,0
18.07.2019 11:00:00 21,6 13,4 26,4 24,5 19,5 19,5 6 3 15 8 ESE 1012,1 24 60 0,0
18.07.2019 10:00:00 18,7 12,7 22,4 20,4 19,4 19,5 3 2 8 5 NNE 1012,6 23 59 0,0
18.07.2019 09:00:00 16,4 12,3 19,7 17,5 19,5 19,5 3 1 6 3 ENE 1012,9 18 54 0,0
18.07.2019 08:00:00 14,5 12,0 14,1 16,1 19,8 19,5 2 1 5 3 SW 1013,0 15 6 0,0
18.07.2019 07:00:00 12,2 11,3 12,0 15,3 20,1 19,5 2 1 5 3 SSE 1012,9 10 0 0,0
18.07.2019 06:00:00 11,4 10,7 9,5 15,5 20,5 19,5 4 2 6 3 SSW 1013,0 11 0 0,0
18.07.2019 05:00:00 12,0 11,3 10,2 16,2 20,9 19,6 4 2 5 3 SSW 1013,0 11 0 0,0
18.07.2019 04:00:00 12,2 11,2 10,7 16,9 21,4 19,6 2 1 6 3 S 1013,4 13 0 0,0
18.07.2019 03:00:00 12,9 11,4 11,6 17,4 21,9 19,6 5 3 6 4 SSW 1013,6 17 0 0,0
18.07.2019 02:00:00 13,2 11,7 11,5 18,0 22,4 19,6 5 3 8 4 SSW 1013,7 19 0 0,0
18.07.2019 01:00:00 14,1 12,1 11,4 19,2 23,0 19,6 3 2 8 4 SW 1013,9 22 0 0,0
18.07.2019 00:00:00 15,3 12,6 11,8 20,6 23,5 19,6 0 0 6 3 N 1013,7 25 0 0,0
17.07.2019 23:00:00 17,6 12,8 14,9 22,2 24,0 19,6 4 2 11 6 N 1013,7 28 0 0,0
17.07.2019 22:00:00 18,9 12,5 17,0 24,3 24,5 19,6 6 3 17 9 N 1013,6 30 0 0,0
17.07.2019 21:00:00 20,3 12,4 19,6 27,1 24,6 19,6 10 5 21 12 N 1013,3 31 49 0,0
17.07.2019 20:00:00 21,3 12,1 22,9 30,0 24,6 19,6 12 7 25 14 N 1013,1 39 60 0,0
17.07.2019 19:00:00 22,1 12,0 26,1 32,4 24,2 19,6 14 8 26 14 NNE 1013,2 41 60 0,0
17.07.2019 18:00:00 22,6 12,1 28,2 34,1 23,6 19,6 13 7 21 11 N 1013,5 36 60 0,0
17.07.2019 17:00:00 22,1 11,8 27,5 34,7 22,7 19,7 15 8 24 13 NNE 1014,0 26 60 0,0
17.07.2019 16:00:00 21,8 11,5 29,0 34,5 21,7 19,7 14 8 25 14 NNE 1014,4 31 60 0,0
17.07.2019 15:00:00 21,4 11,7 28,6 33,4 20,7 19,7 16 9 25 13 NNE 1014,8 22 58 0,0
17.07.2019 14:00:00 21,4 11,4 29,9 31,3 19,7 19,7 11 6 26 14 NNE 1015,0 18 60 0,0
17.07.2019 13:00:00 21,0 10,2 27,9 27,7 18,9 19,7 7 4 16 9 N 1015,3 20 57 0,0
17.07.2019 12:00:00 19,4 10,3 23,0 23,5 18,4 19,7 4 2 16 8 W 1015,6 14 20 0,0
17.07.2019 11:00:00 18,1 11,1 21,9 21,5 18,0 19,7 6 3 13 7 NE 1015,9 15 32 0,0
17.07.2019 10:00:00 17,6 11,5 21,1 18,7 17,8 19,7 4 2 11 6 SE 1016,1 14 54 0,0
17.07.2019 09:00:00 14,8 10,5 17,0 16,1 17,8 19,8 4 2 8 5 NNE 1016,3 13 38 0,0
17.07.2019 08:00:00 13,2 10,8 12,5 14,0 18,0 19,8 2 1 7 4 SE 1016,6 8 43 0,0
17.07.2019 07:00:00 10,7 9,4 10,1 13,2 18,4 19,8 4 2 6 4 S 1016,8 8 0 0,0
17.07.2019 06:00:00 9,8 9,0 8,2 13,3 18,8 19,8 6 3 7 4 SSW 1016,9 7 0 0,0
17.07.2019 05:00:00 10,2 9,4 8,1 13,9 19,2 19,8 4 2 8 5 SW 1016,9 7 0 0,0
17.07.2019 04:00:00 10,9 10,0 8,6 14,6 19,6 19,8 0 0 7 4 N 1016,9 10 0 0,0
17.07.2019 03:00:00 11,4 10,1 8,6 15,4 20,0 19,8 3 1 9 5 SSW 1017,1 11 0 0,0
17.07.2019 02:00:00 13,3 11,1 10,0 16,3 20,4 19,9 4 2 11 6 WNW 1017,2 20 0 0,0
17.07.2019 01:00:00 15,2 11,0 13,3 17,2 20,8 19,9 4 2 14 8 NNW 1017,2 28 0 0,0
17.07.2019 00:00:00 15,5 10,9 13,0 18,3 21,3 19,9 4 2 13 7 NW 1017,2 33 0 0,0
16.07.2019 23:00:00 16,7 10,8 12,2 19,7 21,6 19,9 4 2 8 5 NW 1017,1 33 0 0,0
16.07.2019 22:00:00 18,2 10,4 16,4 21,5 21,9 19,9 6 4 13 7 N 1017,0 37 6 0,0
16.07.2019 21:00:00 19,4 10,3 18,6 23,9 22,0 19,9 9 5 17 9 N 1016,8 40 13 0,0
16.07.2019 20:00:00 20,3 10,0 21,9 26,4 21,8 19,9 14 7 23 12 NNE 1016,8 37 60 0,0
16.07.2019 19:00:00 21,2 9,9 23,0 28,5 21,4 19,9 13 7 23 13 NNW 1016,8 48 60 0,0
16.07.2019 18:00:00 21,5 10,0 24,9 29,7 20,7 19,9 11 6 23 12 NW 1016,9 36 60 0,0
16.07.2019 17:00:00 21,3 10,4 25,1 29,8 19,9 19,9 12 6 23 13 NW 1017,6 40 60 0,0
16.07.2019 16:00:00 20,6 9,5 25,5 29,2 19,0 20,0 11 6 25 14 NW 1017,9 53 60 0,0
16.07.2019 15:00:00 19,5 9,7 24,2 27,6 18,1 20,0 15 8 23 12 NW 1018,3 36 60 0,0
16.07.2019 14:00:00 19,0 9,6 24,0 24,4 17,5 20,0 9 5 21 11 NW 1018,7 63 55 0,0
16.07.2019 13:00:00 16,8 8,9 20,0 19,3 17,2 20,0 9 5 22 12 NNW 1019,3 48 0 0,0
16.07.2019 12:00:00 16,0 9,1 17,8 17,9 17,0 20,0 11 6 20 11 NW 1019,6 27 0 0,0
16.07.2019 11:00:00 15,5 9,4 17,0 17,4 16,7 20,0 10 5 18 10 NNW 1019,6 34 0 0,0
16.07.2019 10:00:00 15,3 9,9 17,0 16,7 16,5 20,0 6 3 13 7 NW 1019,6 31 0 0,0
16.07.2019 09:00:00 13,3 10,0 14,7 14,6 16,5 20,0 2 1 4 2 NE 1020,0 19 0 0,0
16.07.2019 08:00:00 11,7 9,6 11,4 12,7 16,7 20,1 3 1 7 4 SSE 1019,9 13 0 0,0
16.07.2019 07:00:00 9,2 8,2 9,0 11,3 17,0 20,1 4 2 8 4 S 1019,8 10 10 0,0
16.07.2019 06:00:00 7,9 7,5 5,0 11,3 17,3 20,1 0 0 4 2 N 1019,4 6 0 0,0
16.07.2019 05:00:00 8,6 7,9 5,7 12,0 17,6 20,1 3 2 7 4 SSW 1019,3 10 0 0,0
16.07.2019 04:00:00 9,4 8,5 6,5 12,7 17,9 20,1 3 2 8 5 S 1019,4 7 0 0,0
16.07.2019 03:00:00 10,6 9,5 7,4 13,4 18,2 20,1 3 2 6 3 SW 1019,4 11 0 0,0
16.07.2019 02:00:00 12,3 10,2 7,8 14,5 18,5 20,1 3 1 8 4 SW 1019,3 22 0 0,0
16.07.2019 01:00:00 15,0 10,6 10,5 16,0 18,6 20,1 4 2 7 4 WNW 1019,2 36 0 0,0
16.07.2019 00:00:00 15,9 9,9 14,8 16,2 18,8 20,1 3 2 11 6 NNW 1019,4 31 0 0,0
15.07.2019 23:00:00 16,1 9,6 15,3 16,5 18,9 20,2 4 2 10 6 N 1019,5 29 0 0,0
15.07.2019 22:00:00 16,2 10,1 15,5 17,0 19,0 20,2 6 3 14 8 NNE 1019,3 24 0 0,0
15.07.2019 21:00:00 16,6 10,1 16,2 17,5 19,1 20,2 7 4 14 8 N 1019,1 25 0 0,0
15.07.2019 20:00:00 16,8 9,6 16,8 18,0 19,2 20,2 8 4 22 12 N 1019,1 24 0 0,0
15.07.2019 19:00:00 17,2 9,6 17,7 18,6 19,2 20,2 9 5 22 12 NNW 1019,2 27 0 0,0
15.07.2019 18:00:00 17,1 9,8 17,7 18,9 19,2 20,2 11 6 22 12 NW 1019,4 31 0 0,0
15.07.2019 17:00:00 16,7 10,0 17,6 19,1 19,1 20,2 11 6 24 13 NNW 1019,5 16 0 0,0
15.07.2019 16:00:00 16,8 9,7 18,1 19,6 19,0 20,2 14 8 28 15 NW 1019,4 17 0 0,0
15.07.2019 15:00:00 17,1 9,6 18,8 19,8 18,8 20,2 13 7 26 14 NNW 1019,3 14 0 0,0
15.07.2019 14:00:00 16,9 9,3 18,8 19,3 18,6 20,2 16 8 25 14 NNW 1019,3 19 0 0,0
15.07.2019 13:00:00 17,0 9,6 18,7 18,7 18,5 20,3 14 8 31 17 NNW 1019,2 27 0 0,0
15.07.2019 12:00:00 16,4 10,6 17,7 18,0 18,5 20,3 14 8 26 14 NNW 1019,2 30 0 0,0
15.07.2019 11:00:00 16,0 10,8 17,1 17,7 18,4 20,3 10 6 23 12 NNW 1019,3 32 0 0,0
15.07.2019 10:00:00 15,6 10,9 16,4 17,0 18,4 20,3 13 7 23 13 NNW 1019,2 32 0 0,0
15.07.2019 09:00:00 16,4 9,8 17,5 16,7 18,4 20,3 6 3 18 10 N 1019,1 46 0 0,0
15.07.2019 08:00:00 16,2 9,4 16,3 15,8 18,6 20,3 11 6 22 12 ENE 1018,9 55 0 0,0
15.07.2019 07:00:00 15,7 9,7 15,1 15,6 18,7 20,3 8 5 18 10 N 1018,7 51 0 0,0
15.07.2019 06:00:00 15,9 9,5 15,2 15,8 18,9 20,3 10 5 18 10 ENE 1018,5 55 0 0,0
15.07.2019 05:00:00 15,8 10,6 14,9 16,0 19,0 20,3 7 4 16 8 NE 1018,6 48 0 0,0
15.07.2019 04:00:00 16,1 10,4 15,4 16,2 19,2 20,4 8 4 13 7 NNE 1018,5 57 0 0,0
15.07.2019 03:00:00 16,2 10,6 15,3 16,3 19,4 20,4 7 4 14 8 NNE 1018,8 61 0 0,0
15.07.2019 02:00:00 16,5 10,4 15,7 16,6 19,6 20,4 9 5 16 9 NNE 1018,8 52 0 0,0
15.07.2019 01:00:00 16,6 10,3 15,8 16,8 19,8 20,4 7 4 13 7 NNE 1019,1 66 0 0,0
15.07.2019 00:00:00 16,7 10,1 15,6 17,2 20,1 20,4 7 4 13 7 NNE 1019,0 55 0 0,0
14.07.2019 23:00:00 17,1 9,9 16,3 17,6 20,3 20,4 7 4 13 7 N 1019,1 70 0 0,0
14.07.2019 22:00:00 17,3 9,7 16,4 18,2 20,5 20,4 6 3 17 9 N 1019,0 66 0 0,0
14.07.2019 21:00:00 17,7 9,3 17,3 19,2 20,6 20,4 11 6 22 12 N 1018,8 64 0 0,0
14.07.2019 20:00:00 18,2 9,2 18,3 20,7 20,5 20,4 15 8 26 14 NNE 1018,6 71 11 0,0
14.07.2019 19:00:00 19,5 8,8 22,4 21,9 20,4 20,4 12 6 30 16 NNW 1018,4 36 44 0,0
14.07.2019 18:00:00 18,7 8,5 20,6 21,1 20,3 20,4 16 9 26 14 N 1018,4 52 3 0,0
14.07.2019 17:00:00 18,5 8,8 20,1 21,8 20,1 20,4 14 8 29 15 N 1018,6 47 3 0,0
14.07.2019 16:00:00 18,8 8,9 21,8 21,5 19,9 20,5 14 8 25 13 N 1018,8 62 4 0,0
14.07.2019 15:00:00 18,1 8,6 19,9 21,0 19,7 20,5 11 6 26 14 NW 1018,9 35 0 0,0
14.07.2019 14:00:00 17,4 8,4 19,7 20,9 19,5 20,5 15 8 27 15 NNW 1019,1 32 1 0,0
14.07.2019 13:00:00 17,4 9,1 20,5 19,7 19,3 20,5 15 8 27 15 NW 1019,2 28 3 0,0
14.07.2019 12:00:00 16,2 9,3 17,1 18,6 19,3 20,5 14 7 26 14 NNW 1019,4 31 0 0,0
14.07.2019 11:00:00 16,3 9,7 17,8 18,4 19,2 20,5 12 6 22 12 NW 1019,3 29 1 0,0
14.07.2019 10:00:00 15,6 9,6 16,9 17,6 19,3 20,5 12 7 25 13 NW 1019,3 56 0 0,0
14.07.2019 09:00:00 15,0 10,8 15,1 16,7 19,4 20,5 11 6 21 11 NNW 1018,9 46 0 0,0
14.07.2019 08:00:00 14,9 11,8 15,1 16,6 19,6 20,5 5 3 14 7 NNW 1018,6 16 0 0,0
14.07.2019 07:00:00 14,7 11,2 14,6 16,4 19,8 20,6 8 4 16 9 NNW 1018,5 21 0 0,0
14.07.2019 06:00:00 14,8 12,4 14,6 16,5 20,0 20,6 8 5 19 11 NW 1018,6 17 0 0,0
14.07.2019 05:00:00 14,7 12,5 14,3 16,7 20,2 20,6 9 5 21 11 NW 1018,6 20 0 0,0
14.07.2019 04:00:00 15,3 12,8 15,0 17,1 20,5 20,6 10 6 24 13 NNW 1018,6 24 0 0,0
14.07.2019 03:00:00 15,6 12,8 14,7 17,6 20,7 20,6 13 7 23 12 NW 1018,7 32 0 0,0
14.07.2019 02:00:00 16,1 14,0 15,1 18,1 21,0 20,6 14 8 24 13 NNW 1018,6 18 0 0,0
14.07.2019 01:00:00 17,4 14,0 16,2 18,5 21,2 20,6 11 6 22 12 NW 1018,6 43 0 0,0
14.07.2019 00:00:00 17,8 14,2 16,4 18,9 21,5 20,6 6 3 19 10 NW 1018,5 47 0 0,0
13.07.2019 23:00:00 18,0 14,3 16,5 19,3 21,8 20,6 12 6 24 13 NW 1018,3 44 0 0,0
13.07.2019 22:00:00 17,9 14,7 16,3 20,1 22,1 20,6 12 6 34 18 NW 1018,2 29 0 1,9
13.07.2019 21:00:00 19,5 13,6 19,1 21,2 22,2 20,6 16 8 28 15 NW 1017,5 49 1 0,0
13.07.2019 20:00:00 20,5 13,2 20,3 23,2 22,2 20,6 14 7 26 14 NW 1017,1 51 22 0,0
13.07.2019 19:00:00 21,9 12,9 24,5 25,1 22,0 20,6 10 5 29 15 NNW 1016,9 49 49 0,0
13.07.2019 18:00:00 21,9 12,6 24,2 25,1 21,7 20,7 13 7 26 14 NNW 1017,0 43 51 0,0
13.07.2019 17:00:00 20,9 12,9 26,0 24,9 21,4 20,7 13 7 36 20 NNW 1017,4 40 36 0,0
13.07.2019 16:00:00 20,0 12,7 21,4 25,5 20,9 20,7 22 12 39 21 NNW 1017,6 60 45 0,0
13.07.2019 15:00:00 20,7 13,3 23,0 25,3 20,4 20,7 21 12 37 20 NNW 1017,4 35 47 0,0
13.07.2019 14:00:00 21,0 13,0 26,3 23,9 20,0 20,7 14 8 32 18 N 1017,4 40 41 0,0
13.07.2019 13:00:00 19,5 12,8 20,8 21,8 19,8 20,7 13 7 30 16 NNW 1017,6 36 8 0,0
13.07.2019 12:00:00 18,4 13,6 20,0 19,8 19,6 20,7 8 4 20 11 NNW 1017,8 25 0 0,0
13.07.2019 11:00:00 17,2 14,4 17,5 18,8 19,6 20,7 8 5 17 9 NW 1017,7 16 0 0,1
13.07.2019 10:00:00 16,6 13,3 16,5 18,5 19,5 20,7 7 4 19 10 NNW 1017,4 6 0 0,0
13.07.2019 09:00:00 16,7 13,1 17,5 18,0 19,6 20,7 9 5 26 14 NW 1016,9 24 11 0,0
13.07.2019 08:00:00 16,1 13,0 15,6 17,3 19,7 20,7 8 5 20 11 WNW 1016,5 19 8 0,0

tt = Température de l'air
td = dewpoint
tt 5cm = Température de l'air 5cm
tt -5cm = Température de l'air -5cm
tt -20cm = Température de l'air -20cm
tt -100cm = Température de l'air -100cm
ff = Vitesse du vent
fx = gusts
dd = Direction du vent
ppp = reduced air pressure
vv = visibility
sd = Ensoleillement
rr = Quantités de précipitations

stations d'obs. à proximité